Change the Weather History Date:

Saturday, March 8, 2014

  Actual Average Record
Temperature  
Mean Temperature 58 °F -  
Max Temperature 60 °F - - ()
Min Temperature 55 °F - - ()
Degree Days  
Heating Degree Days 8    
Growing Degree Days 8 (Base 50)    
Moisture  
Dew Point 55 °F    
Average Humidity 86    
Maximum Humidity 94    
Minimum Humidity 82    
Precipitation  
Precipitation 0.00 in - - ()
Sea Level Pressure  
Sea Level Pressure 30.09 in    
Wind  
Wind Speed 15 mph (ESE)    
Max Wind Speed 21 mph    
Max Gust Speed -    
Visibility 10 miles    
Events      
T = Trace of Precipitation, MM = Missing Value Source: NWS Daily Summary

Daily Weather History Graph

Daily Weather History Graph

Search for Another Location

Airport or City:

Trip Planner

Search our weather history database for the weather conditions in past years. The results will help you decide how hot, cold, wet, or windy it might be!

Date:

Astronomy

Mar. 08, 2014 Rise Set
Actual Time 6:25 AM CST 6:11 PM CST
Civil Twilight 6:01 AM CST 6:35 PM CST
Nautical Twilight 5:34 AM CST 7:02 PM CST
Astronomical Twilight 5:06 AM CST 7:30 PM CST
Moon 11:35 AM CST (3/8) 12:41 AM CST (3/8)
Length of Visible Light 12h 33m
Length of Day
11h 46m
First Quarter, 52% of the Moon is Illuminated
Mar 8
First Quarter
Mar 16
Full
Mar 23
Last Quarter
Mar 30
New
Apr 7
First Quarter

Hourly Weather History & Observations

Time (CST) Temp. Dew Point Humidity Pressure Visibility Wind Dir Wind Speed Gust Speed Precip Events Conditions
12:15 AM 55.4 °F 50.0 °F 82% 30.05 in 10.0 mi SE 13.8 mph - N/A   Overcast
12:35 AM 57.2 °F 51.8 °F 82% 30.04 in 10.0 mi SE 15.0 mph - N/A   Overcast
12:55 AM 57.2 °F 51.8 °F 82% 30.05 in 10.0 mi SE 15.0 mph - N/A   Overcast
1:15 AM 57.2 °F 51.8 °F 82% 30.05 in 10.0 mi SE 13.8 mph - N/A   Overcast
1:35 AM 57.2 °F 51.8 °F 82% 30.05 in 10.0 mi SE 11.5 mph - N/A   Overcast
1:55 AM 57.2 °F 51.8 °F 82% 30.05 in 10.0 mi SE 12.7 mph - N/A   Overcast
2:15 AM 57.2 °F 53.6 °F 88% 30.05 in 10.0 mi ESE 11.5 mph - N/A   Overcast
2:35 AM 57.2 °F 53.6 °F 88% 30.04 in 10.0 mi ESE 12.7 mph - N/A   Overcast
2:55 AM 57.2 °F 53.6 °F 88% 30.04 in 10.0 mi ESE 13.8 mph - N/A   Overcast
3:15 AM 57.2 °F 53.6 °F 88% 30.04 in 10.0 mi East 11.5 mph - N/A   Overcast
3:35 AM 57.2 °F 53.6 °F 88% 30.04 in 10.0 mi East 12.7 mph - N/A   Overcast
3:55 AM 57.2 °F 53.6 °F 88% 30.03 in 10.0 mi East 13.8 mph - N/A   Overcast
4:15 AM 57.2 °F 53.6 °F 88% 30.04 in 10.0 mi East 12.7 mph - N/A   Overcast
4:35 AM 57.2 °F 53.6 °F 88% 30.03 in 10.0 mi East 15.0 mph - N/A   Overcast
4:55 AM 57.2 °F 53.6 °F 88% 30.04 in 10.0 mi East 16.1 mph - N/A   Overcast
5:15 AM 57.2 °F 53.6 °F 88% 30.04 in 10.0 mi East 17.3 mph - N/A   Overcast
5:35 AM 57.2 °F 53.6 °F 88% 30.05 in 10.0 mi East 13.8 mph - N/A   Overcast
5:55 AM 57.2 °F 53.6 °F 88% 30.06 in 10.0 mi East 16.1 mph - N/A   Overcast
6:15 AM 57.2 °F 53.6 °F 88% 30.06 in 10.0 mi ESE 17.3 mph - N/A   Overcast
6:35 AM 57.2 °F 53.6 °F 88% 30.07 in 9.0 mi East 17.3 mph - N/A   Overcast
6:55 AM 57.2 °F 53.6 °F 88% 30.07 in 9.0 mi East 20.7 mph - N/A   Overcast
7:15 AM 57.2 °F 53.6 °F 88% 30.08 in 9.0 mi East 18.4 mph - N/A   Overcast
7:35 AM 57.2 °F 53.6 °F 88% 30.08 in 9.0 mi ESE 18.4 mph - N/A   Overcast
7:55 AM 57.2 °F 53.6 °F 88% 30.09 in 9.0 mi ESE 17.3 mph - N/A   Overcast
8:15 AM 57.2 °F 53.6 °F 88% 30.09 in 9.0 mi East 18.4 mph - N/A   Mostly Cloudy
8:35 AM 57.2 °F 53.6 °F 88% 30.10 in 8.0 mi ESE 20.7 mph - N/A   Mostly Cloudy
8:55 AM 57.2 °F 53.6 °F 88% 30.11 in 9.0 mi East 19.6 mph - N/A   Scattered Clouds
9:15 AM 57.2 °F 53.6 °F 88% 30.12 in 8.0 mi East 19.6 mph - N/A   Mostly Cloudy
9:35 AM 59.0 °F 53.6 °F 82% 30.13 in 8.0 mi East 18.4 mph - N/A   Partly Cloudy
9:55 AM 59.0 °F 55.4 °F 88% 30.12 in 8.0 mi East 18.4 mph - N/A   Partly Cloudy
10:15 AM 59.0 °F 55.4 °F 88% 30.12 in 8.0 mi East 17.3 mph - N/A   Clear
10:35 AM 59.0 °F 55.4 °F 88% 30.12 in 9.0 mi East 19.6 mph - N/A   Clear
10:55 AM 59.0 °F 55.4 °F 88% 30.12 in 9.0 mi East 19.6 mph - N/A   Scattered Clouds
11:15 AM 59.0 °F 55.4 °F 88% 30.12 in 9.0 mi East 17.3 mph - N/A   Mostly Cloudy
11:35 AM 59.0 °F 55.4 °F 88% 30.11 in 8.0 mi East 18.4 mph - N/A   Mostly Cloudy
11:55 AM 59.0 °F 55.4 °F 88% 30.11 in 9.0 mi East 17.3 mph - N/A   Scattered Clouds
12:15 PM 59.0 °F 55.4 °F 88% 30.11 in 9.0 mi East 17.3 mph - N/A   Mostly Cloudy
12:35 PM 59.0 °F 55.4 °F 88% 30.10 in 9.0 mi East 16.1 mph - N/A   Overcast
12:55 PM 59.0 °F 55.4 °F 88% 30.09 in 9.0 mi East 17.3 mph - N/A   Overcast
1:15 PM 59.0 °F 55.4 °F 88% 30.09 in 9.0 mi ENE 12.7 mph - N/A   Mostly Cloudy
1:35 PM 60.8 °F 55.4 °F 82% 30.08 in 9.0 mi East 16.1 mph - N/A   Mostly Cloudy
1:55 PM 60.8 °F 55.4 °F 82% 30.08 in 9.0 mi East 13.8 mph - N/A   Mostly Cloudy
2:15 PM 60.8 °F 55.4 °F 82% 30.08 in 10.0 mi East 11.5 mph - N/A   Overcast
2:35 PM 60.8 °F 55.4 °F 82% 30.09 in 9.0 mi East 11.5 mph - N/A   Overcast
2:55 PM 60.8 °F 55.4 °F 82% 30.09 in 9.0 mi East 12.7 mph - N/A   Overcast
3:15 PM 60.8 °F 55.4 °F 82% 30.09 in 9.0 mi East 13.8 mph - N/A   Overcast
3:35 PM 60.8 °F 55.4 °F 82% 30.08 in 10.0 mi East 15.0 mph - N/A   Overcast
3:55 PM 60.8 °F 55.4 °F 82% 30.07 in 10.0 mi ESE 17.3 mph - N/A   Mostly Cloudy
4:15 PM 60.8 °F 55.4 °F 82% 30.08 in 10.0 mi ESE 16.1 mph - N/A   Mostly Cloudy
4:35 PM 60.8 °F 55.4 °F 82% 30.09 in 9.0 mi ESE 16.1 mph - N/A   Overcast
4:55 PM 60.8 °F 55.4 °F 82% 30.09 in 9.0 mi ESE 16.1 mph - N/A   Overcast
5:15 PM 60.8 °F 55.4 °F 82% 30.09 in 9.0 mi ESE 15.0 mph - N/A   Overcast
5:35 PM 60.8 °F 55.4 °F 82% 30.09 in 9.0 mi ESE 16.1 mph - N/A   Mostly Cloudy
5:55 PM 60.8 °F 55.4 °F 82% 30.09 in 10.0 mi East 16.1 mph - N/A   Overcast
6:15 PM 60.8 °F 55.4 °F 82% 30.09 in 10.0 mi ESE 15.0 mph - N/A   Mostly Cloudy
6:35 PM 60.8 °F 55.4 °F 82% 30.09 in 10.0 mi ESE 17.3 mph - N/A   Partly Cloudy
6:55 PM 60.8 °F 55.4 °F 82% 30.10 in 10.0 mi ESE 17.3 mph - N/A   Partly Cloudy
7:15 PM 60.8 °F 55.4 °F 82% 30.10 in 10.0 mi ESE 16.1 mph - N/A   Clear
7:35 PM 60.8 °F 55.4 °F 82% 30.11 in 10.0 mi ESE 15.0 mph - N/A   Clear
7:55 PM 60.8 °F 55.4 °F 82% 30.12 in 9.0 mi East 15.0 mph - N/A   Clear
8:15 PM 60.8 °F 55.4 °F 82% 30.12 in 10.0 mi East 16.1 mph - N/A   Clear
8:35 PM 60.8 °F 55.4 °F 82% 30.13 in 10.0 mi ESE 15.0 mph - N/A   Clear
8:55 PM 60.8 °F 57.2 °F 88% 30.14 in 10.0 mi East 13.8 mph - N/A   Clear
9:15 PM 60.8 °F 57.2 °F 88% 30.14 in 10.0 mi East 15.0 mph - N/A   Clear
9:35 PM 60.8 °F 55.4 °F 82% 30.15 in 10.0 mi East 11.5 mph - N/A   Clear
9:55 PM 60.8 °F 57.2 °F 88% 30.16 in 10.0 mi East 11.5 mph - N/A   Clear
10:15 PM 60.8 °F 57.2 °F 88% 30.15 in 10.0 mi East 12.7 mph - N/A   Clear
10:55 PM 60.8 °F 57.2 °F 88% 30.15 in 10.0 mi East 12.7 mph - N/A   Clear
11:15 PM 59.0 °F 57.2 °F 94% 30.15 in 9.0 mi East 12.7 mph - N/A   Clear
11:35 PM 59.0 °F 57.2 °F 94% 30.15 in 10.0 mi East 12.7 mph - N/A   Clear
11:55 PM 59.0 °F 57.2 °F 94% 30.15 in 9.0 mi East 12.7 mph - N/A   Mostly Cloudy